Regional Weather Roundup
Issued by NWS State College, PA

Home | Current Version | Previous Version | Text Only | Print | Product List | Glossary On
Versions: 1 2 3 4 5 6 7 8 9 10 11 12 13 14 15 16 17 18 19 20 21 22 23 24 25 26 27 28 29 30 31 32 33 34 35 36 37 38 39 40 41 42 43 44 45 46 47 48 49 50
000
ASUS41 KCTP 310910
RWRCTP

REGIONAL WEATHER ROUNDUP
NATIONAL WEATHER SERVICE STATE COLLEGE PA
500 AM EDT SUN JUL 31 2016

Note: "fair" indicates few or no clouds below 12,000 feet with no
significant weather and/or obstructions to visibility.

* = STATION THAT DOES NOT REPORT PRECIPITATION /E.G. RAIN...SNOW...ETC/
    THUNDER OR FOG.

PAZ002>004-007>009-013>016-020>023-029>032-311000-
WESTERN PENNSYLVANIA

CITY           SKY/WX    TMP DP  RH WIND       PRES   REMARKS
ERIE           CLOUDY    70  65  84 CALM      29.96R
MEADVILLE      CLOUDY    66  64  93 VRB3      29.99S
FRANKLIN*      CLOUDY    64  63  94 E3        30.01R VSB 3/4
NEW CASTLE     CLOUDY    69  69 100 VRB3      29.98S FOG
BEAVER COUNTY  NOT AVBL
BUTLER*        CLOUDY    68  66  94 CALM      30.01S
PITTSBURGH INT FOG       65  63  93 S3        29.98S VSB 1/2
PITTSBURGH     FOG       67  65  93 CALM      29.98S VSB 1/4
INDIANA*       CLOUDY    68  68 100 CALM      30.03S FOG
LATROBE        FOG       68  68 100 CALM      30.00R VSB 3/4
WASHINGTON CO* CLOUDY    64  63  94 CALM      29.99R VSB 1/4
$$

PAZ004>006-010>012-017>019-024>028-033>037-041-042-045-046-049>053-311000-
CENTRAL PENNSYLVANIA

CITY           SKY/WX    TMP DP  RH WIND       PRES   REMARKS
BRADFORD       CLOUDY    66  63  90 CALM      30.03S
DUBOIS         CLOUDY    67  64  90 NE3       30.00S FOG
CLEARFIELD     NOT AVBL
JOHNSTOWN      MOCLDY    67  63  87 W6        30.02S
ALTOONA        FOG       67  67 100 CALM      30.00R VSB 1/4
STATE COLLEGE  CLOUDY    68  68  99 CALM      29.99S FOG
WILLIAMSPORT   CLOUDY    71  67  87 NE6       29.95S
SELINSGROVE    CLOUDY    71  71 100 CALM      29.97R
FT INDIANTOWN  CLOUDY    70  70 100 N1        29.97S FOG
CAPITAL CITY   CLOUDY    73  69  87 CALM      29.97R
HARRISBURG     CLOUDY    73  72  96 SE3       29.96R
YORK           CLOUDY    70  69  97 CALM      29.98R
$$

PAZ038>040-043-044-047-048-054-055-060>062-067>071-311000-
EASTERN PENNSYLVANIA

CITY           SKY/WX    TMP DP  RH WIND       PRES   REMARKS
SCRANTON       CLOUDY    71  68  90 NE3       29.99S
MOUNT POCONO   FOG       67  66  97 SE7       30.03S VSB 1/2
ALLENTOWN      CLOUDY    74  71  91 E5        29.97S FOG
QUAKERTOWN*    CLOUDY    73  73 100 CALM      29.98S
READING        CLOUDY    73  71  93 CALM      29.95S
LANCASTER      CLOUDY    71  71 100 W3        29.97R FOG
COATESVILLE    CLOUDY    72  72 100 CALM      29.99S FOG
POTTSTOWN      CLOUDY    71  70  96 CALM      29.98S
BLUE BELL      CLOUDY    72  72 100 E5        29.95F
DOYLESTOWN     LGT RAIN  71  71 100 VRB3      29.97F
WILLOW GROVE   NOT AVBL
NORTH PHILA    CLOUDY    76  74  93 E6        29.97F
PHILADELPHIA   CLOUDY    75  73  93 E6        29.95S
$$




USA.gov is the U.S. government's official web portal to all federal, state and local government web resources and services.